{"data":{"norad_id":61785,"intl_designator":"2024-199BC","name":"RTU MIREA 1 (RS51S)","alt_names":[],"object_type":"PAYLOAD","status":"ACTIVE","operator":null,"country":"CIS","launch_date":"2024-11-04","launch_site_code":"VOSTO","launch_vehicle":null,"mission":null,"orbit_class":"UNKNOWN","rcs_meters":null,"size_class":null,"mass_kg":null,"dimensions":null,"purposes":["comms"],"wikipedia_slug":null,"has_3d_model":false,"image_url":null,"decayed_at":null,"tle_current":{"epoch":"2026-05-25T04:20:36.144960Z","epoch_age_seconds":52570,"freshness":"FRESH","line1":"1 61785U 24199BC  26145.18097390  .00053231  00000+0  69809-3 0  9995","line2":"2 61785  97.2978  21.2816 0008376  19.6156 340.5420 15.58357162130884","mean_motion":15.58357162,"eccentricity":0.0008376,"inclination_deg":97.2978,"raan_deg":21.2816,"arg_perigee_deg":19.6156,"mean_anomaly_deg":340.542,"bstar":0.00069809,"rev_number":13088,"period_min":92.405004136016,"perigee_km":386.74028626008,"apogee_km":398.08230876807,"semimajor_km":6770.5482975141,"source":"CELESTRAK","updated_at":"2026-05-25T13:38:23.296358Z"}}}